Details From LGAV - Athens Intl Airport Elefterios Venizel
To LICC - Catania Fontanarossa
Flight Number -
Tags Generated
Created
Modified
Stats Distance 422 nm / 782 km
Max Altitude 0 ft / 0 m
Waypoints 3
Social Downloads 1
Likes 0
Share VATSIM

Download

Looking for another format? Having issues loading an existing format? Contact us
Advertisement - Login to hide

Notes

Generated

Route

LGAV R2180 LICC

ID Type Via Altitude Latitude Longitude Leg Dist Tot Dist Heading (true) Name
O LGAV APT - 0 ft / 0 m 37.92101˚ 23.91920˚ - 0 nm - -
R2180 FIX - 0 ft / 0 m 37.46572˚ 15.05376˚ 422 nm 422 nm 269° / 264° -
O LICC APT - 0 ft / 0 m 37.46563˚ 15.05269˚ 0 nm 422 nm 264° / 264° -

Altitude Profile

Advertisement - Login to hide

Weather


0- 5 10 15 20 25 30 35+ Temperature / ° C

Clouds and Precipitation
Forecast for 2017-08-24 06:00 UTC. Updated 2 hours ago

Ground ~20,000 ft ~40,000 ft Winds

LGAV

Details ICAO LGAV (ATH)
Name Athens Intl Airport Elefterios Venizel
Region Greece
Timezone Europe/Athens (UTC+3.0)
Stats Elevation 308 ft / 94 m (AMSL)
Location 37.936357° 23.944470°
Runways 2
Magnetic Variation 4.454° E

METAR

LGAV 240250Z 35006KT CAVOK 18/11 Q1017 NOSIG

Decode

TAF

TAF TAF LGAV 232300Z 2400/2424 VRB03KT 9999 FEW025 BECMG 2404/2406 03015KT TEMPO 2408/2417 03015G25KT BECMG 2417/2419 35015KT

Decode

Departure Runways

ID Width Length Bearing (true) Bearing (mag) Surface Threshold Offset Overrun Length
03L 148 ft / 45 m 12,474 ft / 3,802 m 36.51° 32.06° Asphalt 984 ft / 300 m 393 ft / 120 m
03R 148 ft / 45 m 13,131 ft / 4,002 m 36.52° 32.07° Asphalt 984 ft / 300 m 393 ft / 120 m
21L 148 ft / 45 m 13,131 ft / 4,002 m 216.54° 212.09° Asphalt 984 ft / 300 m 393 ft / 120 m
21R 148 ft / 45 m 12,474 ft / 3,802 m 216.53° 212.08° Asphalt 984 ft / 300 m 393 ft / 120 m

LICC

Details ICAO LICC (CTA)
Name Catania Fontanarossa
Region Italy
Timezone Europe/Rome (UTC+2.0)
Stats Elevation 39 ft / 12 m (AMSL)
Location 37.466779° 15.066401°
Runways 1
Magnetic Variation 3.186° E

METAR

LICC 240250Z 27005KT CAVOK 22/19 Q1017

Decode

TAF

TAF LICC 232300Z 2400/2424 VRB04KT 9999 SCT050 BECMG 2409/2411 11012KT BECMG 2417/2419 VRB05KT

Decode

Destination Runways

ID Width Length Bearing (true) Bearing (mag) Surface Threshold Offset Overrun Length
08 148 ft / 45 m 7,985 ft / 2,434 m 83.94° 80.75° Asphalt 312 ft / 95 m 0 ft / 0 m
26 148 ft / 45 m 7,985 ft / 2,434 m 263.95° 260.76° Asphalt 279 ft / 85 m 0 ft / 0 m

Approach Navaids

Runway Type Ident Frequency Range Bearing (true) Bearing (mag) Slope Elevation
08 Localiser CTN 109.90 MHz 18 nm / 33 km 83.98° 80.79° - 25 ft / 8 m (AMSL)
08 Glidescope CTN 109.90 MHz 10 nm / 19 km 83.94° 80.76° 3.00° 25 ft / 8 m (AMSL)
08 DME CTN 109.90 MHz 18 nm / 33 km - - - 45 ft / 14 m (AMSL)

Popular Alternatives